Location: Newark
(41.0400°S, 62.7845°W)
Time: 03:38:07
(UTC+00:00)

Vanguard 2 Rocket - Pass Details

Date: 01 December 2021
Orbit: 554 x 3325 km, 32.9° (Epoch: 21 January)

Event Time Altitude Azimuth Distance (km) Brightness Sun altitude
Rises 08:49:59 0° 318° (NW) 7,281 10.9 1.9°
Reaches altitude 10° 08:55:41 10° 325° (NW) 6,131 10.6 2.9°
Maximum altitude 09:11:37 37° 23° (NNE) 3,481 9.9 5.6°
Drops below altitude 10° 09:22:24 10° 85° (E) 4,208 11.6 7.4°
Sets 09:25:27 0° 93° (E) 4,860 12.2 8.0°
